Location: Wroclaw
(51.1000°N, 17.0330°E)
Time: 10:58:13
(UTC+02:00)

ISS - Visible Passes

Search period start: 17 July 2025 00:00
Search period end: 27 July 2025 00:00
Orbit: 413 x 417 km, 51.6° (Epoch: 16 July)

Date Brightness Start Highest point End Pass type
(mag) Time Alt. Az. Time Alt. Az. Time Alt. Az.
17 Jul -2.5 00:22:58 10° W 00:25:12 27° WSW 00:25:12 27° WSW visible
17 Jul -3.7 21:57:11 10° W 22:00:33 83° N 22:03:53 10° E visible
17 Jul -3.3 23:33:57 10° W 23:37:09 43° SSW 23:37:42 38° S visible
18 Jul -3.7 22:44:58 10° W 22:48:17 58° SSW 22:50:14 22° SE visible
19 Jul -1.4 00:22:22 10° W 00:23:05 13° WSW 00:23:05 13° WSW visible
19 Jul -3.8 21:56:01 10° W 21:59:21 75° SSW 22:02:42 10° ESE visible
19 Jul -2.3 23:33:01 10° W 23:35:39 23° SW 23:35:39 23° SW visible
20 Jul -2.8 22:43:52 10° W 22:46:55 33° SSW 22:48:16 23° SSE visible
21 Jul -3.3 21:54:49 10° W 21:58:02 46° SSW 22:00:54 12° SE visible
21 Jul -1.3 23:32:55 10° WSW 23:33:45 11° SW 23:33:45 11° SW visible
22 Jul -1.8 22:43:04 10° W 22:45:21 17° SW 22:46:25 15° SSW visible
23 Jul -2.2 21:53:44 10° W 21:56:33 25° SSW 21:59:07 11° SSE visible
25 Jul -1.3 21:53:17 10° WSW 21:54:50 13° SW 21:56:21 10° SSW visible
